Location: 5810 Zion Rd, Cleves, OH 45002, USA
(39.1922°N, 84.7113°W)
Time: 04:50:49
(UTC-05:00)

Tiros 1 - All Passes

Search period start: 09 December 2019 00:00
Search period end: 19 December 2019 00:00
Orbit: 630 x 664 km, 48.4° (Epoch: 08 December)

Date Brightness Start Highest point End Pass type
(mag) Time Alt. Az. Time Alt. Az. Time Alt. Az.
09 Dec - 05:09:02 10° SSE 05:11:02 13° SE 05:13:02 10° ESE visible
09 Dec - 06:47:54 10° SW 06:52:36 70° SE 06:57:15 10° ENE visible
09 Dec - 08:30:44 10° W 08:35:04 36° NNW 08:39:22 10° NE daylight
09 Dec - 10:14:14 10° NW 10:18:10 26° N 10:22:04 10° ENE daylight
09 Dec - 11:56:41 10° NW 12:01:10 46° NNE 12:05:36 10° E daylight
09 Dec - 13:38:58 10° WNW 13:43:20 43° SW 13:47:42 10° SSE daylight
10 Dec - 05:32:36 10° SSW 05:36:42 29° SE 05:40:45 10° ENE visible
10 Dec - 07:14:01 10° WSW 07:18:41 61° NNW 07:23:19 10° NE visible
10 Dec - 08:57:30 10° WNW 09:01:32 27° N 09:05:32 10° NE daylight
10 Dec - 10:40:34 10° NW 10:44:42 30° NNE 10:48:48 10° ENE daylight
10 Dec - 12:22:42 10° WNW 12:27:21 83° NNE 12:31:59 10° ESE daylight
10 Dec - 14:05:51 10° W 14:09:05 19° SW 14:12:19 10° S daylight
11 Dec - 04:19:32 10° SSE 04:21:02 11° SE 04:22:33 10° ESE visible
11 Dec - 05:57:52 10° SW 06:02:34 65° SE 06:07:13 10° ENE visible
11 Dec - 07:40:36 10° W 07:44:59 37° NNW 07:49:20 10° NE daylight
11 Dec - 09:24:08 10° NW 09:28:05 26° N 09:31:59 10° ENE daylight
11 Dec - 11:06:39 10° NW 11:11:06 44° NNE 11:15:31 10° E daylight
11 Dec - 12:48:54 10° WNW 12:53:20 47° SW 12:57:44 10° SSE daylight
12 Dec - 04:42:42 10° SSW 04:46:41 27° SE 04:50:39 10° ENE visible
12 Dec - 06:23:56 10° WSW 06:28:38 65° NNW 06:33:18 10° NE visible
12 Dec - 08:07:22 10° WNW 08:11:26 28° N 08:15:29 10° NE daylight
12 Dec - 09:50:30 10° NW 09:54:37 30° NNE 09:58:42 10° ENE daylight
12 Dec - 11:32:40 10° NW 11:37:19 78° NNE 11:41:56 10° ESE daylight
12 Dec - 13:15:40 10° W 13:19:06 21° SW 13:22:32 10° S daylight
13 Dec - 03:30:26 10° SE 03:31:03 10° SE 03:31:40 10° ESE visible
13 Dec - 05:07:51 10° SW 05:12:32 60° SE 05:17:10 10° ENE visible
13 Dec - 06:50:29 10° W 06:54:55 39° NNW 06:59:19 10° NE visible
13 Dec - 08:34:02 10° WNW 08:38:00 26° N 08:41:55 10° ENE daylight
13 Dec - 10:16:36 10° NW 10:21:02 42° NNE 10:25:26 10° E daylight
13 Dec - 11:58:50 10° WNW 12:03:20 51° SW 12:07:47 10° SE daylight
14 Dec - 03:52:48 10° S 03:56:40 25° SE 04:00:32 10° E visible
14 Dec - 05:33:51 10° WSW 05:38:35 69° NNW 05:43:17 10° NE visible
14 Dec - 07:17:15 10° WNW 07:21:21 29° N 07:25:26 10° NE visible
14 Dec - 09:00:26 10° NW 09:04:32 29° N 09:08:36 10° ENE daylight
14 Dec - 10:42:37 10° NW 10:47:17 73° NNE 10:51:54 10° ESE daylight
14 Dec - 12:25:30 10° W 12:29:06 23° SW 12:32:42 10° S daylight
15 Dec - 04:17:51 10° SW 04:22:30 55° SE 04:27:07 10° ENE visible
15 Dec - 06:00:21 10° W 06:04:50 41° NNW 06:09:17 10° NE visible
15 Dec - 07:43:57 10° WNW 07:47:54 26° N 07:51:51 10° ENE daylight
15 Dec - 09:26:34 10° NW 09:30:59 40° NNE 09:35:21 10° E daylight
15 Dec - 11:08:46 10° WNW 11:13:19 55° SW 11:17:49 10° SE daylight
16 Dec - 03:02:55 10° S 03:06:40 23° SE 03:10:23 10° E night (unlit)
16 Dec - 04:43:46 10° WSW 04:48:31 74° NNW 04:53:15 10° NE visible
16 Dec - 06:27:07 10° WNW 06:31:16 29° NNW 06:35:24 10° NE visible
16 Dec - 08:10:21 10° NW 08:14:27 28° N 08:18:30 10° ENE daylight
16 Dec - 09:52:34 10° NW 09:57:14 68° NNE 10:01:51 10° ESE daylight
16 Dec - 11:35:20 10° W 11:39:07 25° SW 11:42:52 10° S daylight
17 Dec - 03:27:51 10° SW 03:32:27 51° SE 03:37:03 10° ENE visible
17 Dec - 05:10:14 10° W 05:14:46 43° NNW 05:19:16 10° NE visible
17 Dec - 06:53:50 10° WNW 06:57:49 26° N 07:01:46 10° NE visible
17 Dec - 08:36:31 10° NW 08:40:55 38° NNE 08:45:15 10° E daylight
17 Dec - 10:18:41 10° WNW 10:23:17 60° SW 10:27:50 10° SE daylight
18 Dec - 02:13:04 10° S 02:16:40 21° SE 02:20:14 10° E night (unlit)
18 Dec - 03:53:41 10° WSW 03:58:28 79° NNW 04:03:13 10° ENE visible
18 Dec - 05:36:58 10° WNW 05:41:11 30° NNW 05:45:21 10° NE visible
18 Dec - 07:20:17 10° NW 07:24:22 28° N 07:28:24 10° ENE visible
18 Dec - 09:02:32 10° NW 09:07:12 64° NNE 09:11:48 10° ESE daylight
18 Dec - 10:45:12 10° WNW 10:49:07 27° SW 10:52:59 10° SSE daylight
